Date,TemperatureHighF,TemperatureAvgF,TemperatureLowF,DewpointHighF,DewpointAvgF,DewpointLowF,HumidityHigh,HumidityAvg,HumidityLow,PressureMaxIn,PressureMinIn,WindSpeedMaxMPH,WindSpeedAvgMPH,GustSpeedMaxMPH,PrecipitationSumIn
2014-2-1,38.8,30.3,24.1,38.8,30.3,24.1,100,100,100,30.07,29.78,2,0,6,0.00
2014-2-2,29.4,23.1,9.0,29.0,20.1,9.0,100,88,72,30.27,29.98,7,2,13,0.00
2014-2-3,25.1,11.3,-1.8,15.6,6.4,-5.9,100,82,57,30.37,30.26,4,0,10,0.00
2014-2-4,25.7,15.9,3.7,23.5,11.5,0.4,100,84,59,30.41,30.08,3,0,10,0.00
2014-2-5,26.7,21.6,19.4,26.6,18.8,11.5,100,90,65,30.36,29.96,9,4,17,0.00
2014-2-6,19.9,13.3,6.0,18.4,9.7,0.7,100,85,75,30.36,30.31,5,1,17,0.00
2014-2-7,14.1,8.9,2.2,7.9,1.9,-4.8,93,73,55,30.35,30.29,6,2,14,0.00
2014-2-8,17.7,12.2,4.3,16.4,6.9,-2.4,100,80,54,30.33,30.12,3,0,8,0.00
2014-2-9,21.3,18.2,16.2,20.9,16.4,10.6,100,93,73,30.19,30.05,6,2,14,0.00
2014-2-10,17.7,14.2,11.7,13.1,9.0,4.3,96,79,68,30.39,30.19,7,2,14,0.00
2014-2-11,19.2,11.3,-1.4,9.8,4.6,-4.8,98,75,52,30.49,30.39,4,1,11,0.00
2014-2-12,23.8,9.4,-8.9,11.2,0.2,-14.2,92,68,44,30.41,30.01,4,1,10,0.00
2014-2-13,31.5,22.1,9.2,28.9,11.2,3.8,100,64,37,30.01,29.43,7,2,17,0.00
2014-2-14,28.5,23.2,20.6,27.6,20.9,16.6,100,91,79,29.84,29.45,9,5,22,0.00
2014-2-15,26.1,20.1,16.7,17.3,14.8,8.0,98,80,57,30.05,29.84,4,1,10,0.00
2014-2-16,28.2,20.6,9.3,26.1,18.7,8.4,100,93,69,30.27,29.90,7,2,17,0.00
2014-2-17,29.4,19.5,7.9,29.4,17.2,6.3,100,91,65,30.28,29.63,8,3,18,0.00
2014-2-18,46.0,35.5,27.0,30.9,26.8,22.2,100,73,49,29.95,29.59,9,4,19,0.44
2014-2-19,45.4,37.1,31.0,36.2,30.8,23.7,100,80,44,29.96,29.56,7,2,14,0.10
2014-2-20,55.7,34.8,33.1,55.7,18.3,-99.9,100,81,80,29.96,29.22,10,-152,18,0.37
2014-2-21,44.8,36.4,32.9,41.8,28.4,16.2,100,74,50,29.73,29.32,9,4,27,0.01
2014-2-22,35.0,30.0,26.0,26.5,16.1,10.0,71,56,38,29.98,29.73,8,3,22,0.00
2014-2-23,28.4,23.4,20.6,18.0,14.0,10.7,80,67,54,30.14,29.98,8,4,19,0.00
2014-2-24,24.1,20.6,18.0,12.9,11.4,8.2,78,67,52,30.20,30.11,9,5,19,0.00
2014-2-25,22.2,19.4,14.1,20.5,11.2,0.4,100,71,52,30.16,30.05,8,4,22,0.00
2014-2-26,18.1,12.4,9.2,9.0,2.1,-5.1,93,64,42,30.13,29.59,9,4,25,0.00
2014-2-27,19.2,10.3,1.5,16.5,2.5,-9.7,100,72,44,30.19,29.55,13,6,30,0.00
2014-2-28,23.6,10.7,-5.0,11.8,-1.6,-10.4,86,59,36,30.26,30.00,7,2,18,0.00